Haines, AK

9:42 PM AKST on November 21, 2017 (GMT -0900)
Haines

Weather History for PAHN - March, 2013

Change the Weather History Date:

Friday, March 22, 2013

  Actual Average Record
Temperature  
Mean Temperature 17 °F -  
Max Temperature 27 °F 37 °F 52 °F (2016)
Min Temperature 7 °F 26 °F 7 °F (2013)
Degree Days  
Heating Degree Days 48    
Moisture  
Dew Point 7 °F    
Average Humidity 63    
Maximum Humidity 81    
Minimum Humidity 38    
Precipitation  
Precipitation 0.00 in - - ()
Sea Level Pressure  
Sea Level Pressure 30.37 in    
Wind  
Wind Speed 10 mph (West)    
Max Wind Speed 14 mph    
Max Gust Speed -    
Visibility 9 miles    
Events Snow    
Averages and records for this station are not official NWS values.
T = Trace of Precipitation, MM = Missing Value Source: NWS Daily Summary

Daily Weather History Graph

Daily Weather History Graph

Search for Another Location

Airport or City:

Trip Planner

Search our weather history database for the weather conditions in past years. The results will help you decide how hot, cold, wet, or windy it might be!

Date:

Astronomy

Mar. 22, 2013 Rise Set
Actual Time 6:56 AM AKDT 7:22 PM AKDT
Civil Twilight 6:15 AM AKDT 8:03 PM AKDT
Nautical Twilight 5:26 AM AKDT 8:52 PM AKDT
Astronomical Twilight 4:33 AM AKDT 9:46 PM AKDT
Moon 2:01 PM AKDT 5:00 AM AKDT
Length of Visible Light 13h 47m
Length of Day
12h 25m
Waxing Gibbous, 78% of the Moon is Illuminated
Mar 22
Waxing Gibbous
Mar 27
Full
Apr 2
Last Quarter
Apr 10
New
Apr 18
First Quarter

Hourly Weather History & Observations

Time (AKDT) Temp. Windchill Dew Point Humidity Pressure Visibility Wind Dir Wind Speed Gust Speed Precip Events Conditions
12:54 AM 12.9 °F -2.2 °F -0.9 °F 54% 30.39 in 10.0 mi WNW 13.8 mph - N/A   Clear
1:54 AM 10.9 °F -4.7 °F -0.0 °F 61% 30.38 in 10.0 mi WNW 13.8 mph - N/A   Clear
2:54 AM 10.0 °F -5.9 °F -0.9 °F 61% 30.39 in 10.0 mi WNW 13.8 mph - N/A   Clear
3:54 AM 9.0 °F -6.6 °F -0.0 °F 67% 30.39 in 10.0 mi WNW 12.7 mph - N/A   Clear
4:54 AM 7.0 °F -8.3 °F -0.9 °F 70% 30.39 in 10.0 mi WNW 11.5 mph - N/A   Clear
5:54 AM 7.0 °F -9.1 °F -0.9 °F 70% 30.40 in 10.0 mi WNW 12.7 mph - N/A   Clear
6:54 AM 7.0 °F -8.3 °F -0.9 °F 70% 30.40 in 10.0 mi WNW 11.5 mph - N/A   Clear
7:54 AM 7.0 °F -8.3 °F -0.0 °F 73% 30.40 in 10.0 mi WNW 11.5 mph - N/A   Clear
8:54 AM 9.0 °F -6.6 °F 1.0 °F 70% 30.40 in 10.0 mi West 12.7 mph - N/A   Clear
9:54 AM 12.9 °F -0.9 °F 3.0 °F 65% 30.40 in 10.0 mi West 11.5 mph - N/A   Clear
10:54 AM 18.0 °F 6.1 °F 1.9 °F 50% 30.39 in 10.0 mi West 10.4 mph - N/A   Clear
11:54 AM 21.0 °F 10.6 °F 1.0 °F 42% 30.39 in 10.0 mi West 9.2 mph - N/A   Clear
12:54 PM 24.1 °F - 1.9 °F 38% 30.39 in 10.0 mi Calm Calm - N/A   Scattered Clouds
1:54 PM 24.1 °F - 9.0 °F 53% 30.38 in 10.0 mi Calm Calm - N/A   Mostly Cloudy
2:54 PM 25.0 °F 18.1 °F 10.9 °F 55% 30.37 in 10.0 mi SSE 5.8 mph - N/A   Mostly Cloudy
3:54 PM 26.1 °F 17.6 °F 15.1 °F 63% 30.36 in 10.0 mi SSE 8.1 mph - N/A   Overcast
4:54 PM 27.0 °F 21.6 °F 17.1 °F 66% 30.35 in 10.0 mi South 4.6 mph - N/A   Overcast
5:54 PM 27.0 °F - 19.0 °F 72% 30.35 in 10.0 mi Calm Calm - N/A   Overcast
6:54 PM 26.1 °F 19.4 °F 21.0 °F 81% 30.33 in 6.0 mi West 5.8 mph - 0.00 in Snow Light Snow
7:12 PM 26.6 °F 20.0 °F 21.2 °F 80% 30.32 in 6.0 mi West 5.8 mph - 0.00 in Snow Light Snow
7:54 PM 26.1 °F 20.5 °F 21.0 °F 81% 30.33 in 5.0 mi WNW 4.6 mph - 0.00 in Snow Light Snow
8:54 PM 26.1 °F 19.4 °F 14.0 °F 60% 30.33 in 9.0 mi WNW 5.8 mph - 0.00 in   Overcast
9:54 PM 26.1 °F 17.6 °F 10.0 °F 51% 30.32 in 10.0 mi WNW 8.1 mph - N/A   Overcast
10:54 PM 25.0 °F 15.5 °F 10.9 °F 55% 30.31 in 10.0 mi WNW 9.2 mph - N/A   Overcast
11:54 PM 25.0 °F 15.5 °F 10.9 °F 55% 30.31 in 10.0 mi WNW 9.2 mph - N/A   Overcast